LEOIR Weather Reports


time (UTC)temp
C
wind
direction
speed
KPH
gust
KPH
rain 1hr
cm
rain 24hr
cm
rain mn
cm
humidity
%
barometer
mb
20260505021550 11 42 0.0 0.0 0.00 0.00 0.00 61 1009.4
20260505020048 11 42 0.0 0.0 0.00 0.00 0.00 60 1009.4
20260505014602 11 42 0.0 0.0 0.00 0.00 0.00 59 1009.6
20260505013044 11 42 0.0 0.0 0.00 0.00 0.00 59 1009.5
20260505011541 11 42 0.0 0.0 0.00 0.00 0.00 58 1009.6
20260505010038 12 42 0.0 0.0 0.00 0.00 0.00 58 1009.6
20260505004539 12 42 0.0 0.0 0.00 0.00 0.00 56 1009.6
20260505003032 12 42 0.0 0.0 0.00 0.00 0.00 55 1009.6
20260505001529 13 42 0.0 0.0 0.00 0.00 0.00 53 1009.7
20260505000031 13 42 0.0 0.0 0.00 0.00 0.00 53 1009.7
20260504234523 13 42 0.0 0.0 0.00 0.00 0.00 52 1009.7
20260504233020 14 42 0.0 0.0 0.00 0.00 0.00 51 1009.8
20260504231516 14 42 0.0 0.0 0.00 0.00 0.00 49 1009.8
20260504230017 15 42 0.0 0.0 0.00 0.00 0.00 47 1009.9
20260504224511 15 42 0.0 0.0 0.00 0.00 0.00 47 1009.9
20260504223008 15 42 0.0 0.0 0.00 0.00 0.00 46 1010.0
20260504221505 15 42 0.0 0.0 0.00 0.00 0.00 46 1009.9
20260504220003 16 42 0.0 0.0 0.00 0.00 0.00 45 1010.0
20260504214502 16 42 0.0 0.0 0.00 0.00 0.00 44 1010.1
20260504213003 16 42 0.0 0.0 0.00 0.00 0.00 44 1010.1
20260504211506 15 42 0.0 0.0 0.00 0.00 0.00 44 1010.0
20260504210100 16 42 0.0 0.0 0.00 0.00 0.00 44 1010.0
20260504204603 16 42 0.0 0.0 0.00 0.00 0.00 42 1009.9
20260504203121 16 42 0.0 0.0 0.00 0.00 0.00 42 1010.0
20260504201558 17 42 0.0 0.0 0.00 0.00 0.00 39 1009.9
20260504200058 18 42 0.0 0.0 0.00 0.00 0.00 36 1009.8
20260504194606 18 42 0.0 0.0 0.00 0.00 0.00 35 1009.8
20260504193109 19 42 0.0 1.6 0.00 0.00 0.00 34 1009.9
20260504191556 20 42 0.0 1.6 0.00 0.00 0.00 33 1009.9
20260504190116 20 42 0.0 0.0 0.00 0.00 0.00 31 1009.8
20260504184606 21 42 0.0 0.0 0.00 0.00 0.00 30 1009.7
20260504183054 22 42 0.0 0.0 0.00 0.00 0.00 28 1009.6
20260504181554 22 42 0.0 1.6 0.00 0.00 0.00 26 1009.5
20260504180053 23 42 0.0 1.6 0.00 0.00 0.00 25 1009.4
20260504174601 23 42 0.0 1.6 0.00 0.00 0.00 24 1009.3
20260504173056 24 42 0.0 1.6 0.00 0.00 0.00 23 1009.3
20260504171551 25 42 0.0 0.0 0.00 0.00 0.00 22 1009.1
20260504090116 25 65 0.0 4.8 0.00 0.00 0.00 31 1013.0
20260504081540 24 86 0.0 8.0 0.00 0.00 0.00 31 1013.1
20260504060105 17 14 0.0 0.0 0.00 0.00 0.00 50 1013.3
20260504044555 12 4 0.0 0.0 0.00 0.00 0.00 57 1013.2
20260504043036 12 21 0.0 1.6 0.00 0.00 0.00 58 1013.1
20260504041530 12 21 0.0 0.0 0.00 0.00 0.00 58 1013.2
20260504040026 11 21 0.0 0.0 0.00 0.00 0.00 60 1013.2
20260504034533 10 21 0.0 0.0 0.00 0.00 0.00 63 1013.3
20260504033018 10 21 0.0 0.0 0.00 0.00 0.00 66 1013.4
20260504031515 9 21 0.0 0.0 0.00 0.00 0.00 68 1013.5
20260504030013 8 21 0.0 0.0 0.00 0.00 0.00 68 1013.5
20260504024517 9 21 0.0 0.0 0.00 0.00 0.00 67 1013.5
20260504023008 9 21 0.0 0.0 0.00 0.00 0.00 66 1013.5